TimeMDT,TemperatureF,Dew PointF,Humidity,Sea Level PressureIn,VisibilityMPH,Wind Direction,Wind SpeedMPH,Gust SpeedMPH,PrecipitationIn,Events,Conditions,WindDirDegrees,DateUTC
12:53 AM,61.0,42.1,50,30.09,10.0,NNE,6.9,-,N/A,,Clear,20,2013-09-06 06:53:00
1:53 AM,59.0,42.1,53,30.10,10.0,North,4.6,-,N/A,,Mostly Cloudy,10,2013-09-06 07:53:00
2:53 AM,57.0,42.1,57,30.10,10.0,Calm,Calm,-,N/A,,Clear,0,2013-09-06 08:53:00
3:53 AM,57.9,39.9,51,30.09,10.0,NNW,3.5,-,N/A,,Clear,330,2013-09-06 09:53:00
4:53 AM,53.1,41.0,64,30.12,10.0,North,5.8,-,N/A,,Scattered Clouds,10,2013-09-06 10:53:00
5:53 AM,50.0,39.9,68,30.14,10.0,NE,8.1,-,N/A,,Clear,50,2013-09-06 11:53:00
6:53 AM,51.1,39.9,66,30.15,10.0,Calm,Calm,-,N/A,,Clear,0,2013-09-06 12:53:00
7:53 AM,57.0,44.1,62,30.14,10.0,Calm,Calm,-,N/A,,Clear,0,2013-09-06 13:53:00
8:53 AM,64.9,39.0,39,30.15,10.0,Calm,Calm,-,N/A,,Clear,0,2013-09-06 14:53:00
9:53 AM,72.0,41.0,33,30.12,10.0,ENE,4.6,-,N/A,,Clear,60,2013-09-06 15:53:00
10:53 AM,75.9,37.0,24,30.10,10.0,Variable,4.6,-,N/A,,Clear,0,2013-09-06 16:53:00
11:53 AM,79.0,37.9,23,30.08,10.0,SSE,3.5,-,N/A,,Clear,160,2013-09-06 17:53:00
12:53 PM,82.9,37.9,20,30.05,10.0,SSE,5.8,-,N/A,,Clear,160,2013-09-06 18:53:00
1:53 PM,82.9,37.0,19,30.03,10.0,Variable,3.5,-,N/A,,Clear,0,2013-09-06 19:53:00
2:53 PM,84.0,37.0,19,30.00,10.0,Variable,4.6,-,N/A,,Clear,0,2013-09-06 20:53:00
3:53 PM,86.0,37.9,18,29.96,10.0,WSW,9.2,-,N/A,,Clear,240,2013-09-06 21:53:00
4:53 PM,84.9,37.0,18,29.96,10.0,NNW,6.9,-,N/A,,Clear,330,2013-09-06 22:53:00
5:53 PM,84.9,37.9,19,29.95,10.0,West,8.1,-,N/A,,Partly Cloudy,260,2013-09-06 23:53:00
6:53 PM,82.0,37.0,20,29.96,10.0,SW,5.8,-,N/A,,Clear,230,2013-09-07 00:53:00
7:53 PM,78.1,36.0,22,29.96,10.0,SW,3.5,-,N/A,,Clear,230,2013-09-07 01:53:00
8:53 PM,73.0,39.0,29,29.97,10.0,NE,3.5,-,N/A,,Partly Cloudy,50,2013-09-07 02:53:00
9:53 PM,69.1,43.0,39,29.96,10.0,NNE,3.5,-,N/A,,Scattered Clouds,20,2013-09-07 03:53:00
10:53 PM,66.9,42.1,40,29.97,10.0,NNE,3.5,-,N/A,,Clear,20,2013-09-07 04:53:00
11:53 PM,64.9,42.1,43,29.99,10.0,Calm,Calm,-,N/A,,Clear,0,2013-09-07 05:53:00